Вернуться в каталог

COSMOS 1254

АктивенВоенныеLEO
NORAD 12324·PAYLOAD·🇷🇺 Russia

Запущен Mar 6, 1981 с Plesetsk Cosmodrome

Loading…

Ближайшие Пролёты (ближайшие 24 часа)

TLE

СвежийSource: Space-Track

Эпоха: Sep 14, 2026, 11:11 UTC

1 12324U 81022E   26257.46623922 -.00000026  00000-0 -64159-4 0  9990
2 12324  74.0263  83.9117 0026131 178.1694 195.5671 12.53129981 82560

Отслеживайте COSMOS 1254 в реальном времени с AllMySat

Download on the App Store